Location: Gad�tanya
(48.0500°N, 20.8500°E)
Time: 11:49:33
(UTC+00:00)

USA 215 - Pass Details

Date: 05 July 2020
Orbit: 1102 x 1106 km, 123.0° (Epoch: 08 August)

Event Time Altitude Azimuth Distance (km) Brightness Sun altitude
Rises 22:38:50 0° 61° (ENE) 3,926 6.5 -19.3°
Reaches altitude 10° 22:41:25 10° 56° (NE) 2,966 6.0 -19.3°
Maximum altitude 22:47:35 47° 346° (NNW) 1,433 4.3 -19.3°
Drops below altitude 10° 22:53:46 10° 275° (W) 2,961 5.5 -19.2°
Sets 22:56:20 0° 270° (W) 3,918 6.1 -19.2°
